星链-4276 (STARLINK-4276 )

导读 | 星芒AI

STARLINK-4276 是 SpaceX Starlink 项目中的一颗低轨通信卫星,属于第 17 批组网发射的星群。该卫星于 2022 年 9 月 由猎鹰 9 号火箭送入近地轨道,旨在为全球用户提供高速互联网服务。它运行在约 550 公里的高度,采用先进通信技术,支持宽带数据传输。Starlink 卫星群致力于构建全球覆盖的卫星互联网网络,尤其服务于偏远地区。STARLINK-4276 在提升全球网络接入能力方面发挥着重要作用。

基本信息
目录编号:
53179
目录名称:
STARLINK-4276
国际标识:
2022-083AZ
轨道中心:
EARTH
卫星名称:
星链-4276
卫星全名:
星链-4276 (STARLINK-4276 )
卫星状态:
在轨 (已飞行1253 天)
发射日期:
2022-07-17 UTC
国别 :
美国 (US)
星等 :
--
轨道信息
数据来源 国际轨道数据 AOE轨道数据
星历时间 2025-12-21T02:48:24+0800
11小时前
查看轨道信息
2025-12-19T06:00:00+0800
2天前
查看轨道信息
半长轴 6917.902km 6917.851km
偏心率 0.0001114 0.0001476
轨道倾角 53.217° 53.215°
近地点辐角 81.808° 77.782°
升交点赤经 117.941° 126.325°
平近点角 278.304° 215.920°
近地点 538.994km 538.694km
远地点 540.536km 540.738km
周期 95.438分钟 95.437分钟
每日圈数 15.088331 15.088499
详细信息
固有亮度:
5
最大亮度:
2.5
卫星平台:
Starlink v1.5
覆盖范围:
全球
运营商:
太空探索技术公司
运营商所在国:
美国
制造商(研发单位):
太空探索技术公司
制造商所在国:
美国
使用方式:
暂无
卫星简介
星链(Starlink)计划是由太空探索技术公司(SpaceX)提出的一个巨型低轨卫星互联网星座项目,计划在2019年至2024年间在太空搭建由约1.2万颗卫星组成的“星链”网络,其中1584颗将部署在地球上空550千米处的近地轨道,并从2020年开始工作。该卫星仍在工作。
2D轨道图
3D轨道图
轨道高度分析图
轨道倾角分析图
轨道综合分析图
查看轨道综合分析图